| time (UTC) | temp F | wind direction | speed MPH | gust MPH | rain 1hr in | rain 24hr in | rain mn in | humidity % | barometer mb |
| 20260906111600 | 68 | 0 | 0.0 | 0.0 | 0.00 | 0.01 | 0.00 | 100 | 1015.1 |
| 20260906110056 | 67 | 0 | 0.0 | 0.0 | 0.00 | 0.01 | 0.00 | 100 | 1015.3 |
| 20260906104557 | 67 | 0 | 0.0 | 0.0 | 0.00 | 0.01 | 0.00 | 100 | 1015.2 |
| 20260906103055 | 67 | 0 | 0.0 | 0.0 | 0.00 | 0.01 | 0.00 | 100 | 1015.2 |
| 20260906101554 | 67 | 0 | 0.0 | 0.0 | 0.00 | 0.01 | 0.00 | 100 | 1015.2 |
| 20260906094601 | 67 | 0 | 0.0 | 0.0 | 0.00 | 0.01 | 0.00 | 100 | 1015.4 |
| 20260906093057 | 67 | 0 | 0.0 | 0.0 | 0.00 | 0.01 | 0.00 | 100 | 1015.2 |
| 20260906091551 | 66 | 0 | 0.0 | 0.0 | 0.00 | 0.01 | 0.00 | 100 | 1015.2 |
| 20260906090100 | 66 | 0 | 0.0 | 0.0 | 0.00 | 0.01 | 0.00 | 100 | 1015.3 |
| 20260906084600 | 66 | 0 | 0.0 | 0.0 | 0.00 | 0.01 | 0.00 | 100 | 1015.2 |
| 20260906083054 | 67 | 0 | 0.0 | 0.0 | 0.00 | 0.01 | 0.00 | 100 | 1015.1 |
| 20260906081554 | 66 | 0 | 0.0 | 0.0 | 0.00 | 0.01 | 0.00 | 100 | 1015.0 |
| 20260906080059 | 67 | 0 | 0.0 | 0.0 | 0.00 | 0.01 | 0.00 | 100 | 1014.9 |
| 20260906074556 | 67 | 0 | 0.0 | 0.0 | 0.00 | 0.01 | 0.00 | 100 | 1014.9 |
| 20260906073057 | 67 | 0 | 0.0 | 0.0 | 0.00 | 0.01 | 0.00 | 99 | 1014.9 |
| 20260906071552 | 67 | 0 | 0.0 | 0.0 | 0.00 | 0.01 | 0.00 | 99 | 1015.0 |
| 20260906070056 | 67 | 0 | 0.0 | 0.0 | 0.00 | 0.01 | 0.00 | 99 | 1015.2 |
| 20260906064601 | 68 | 0 | 0.0 | 0.0 | 0.00 | 0.01 | 0.00 | 99 | 1015.3 |
| 20260906063057 | 68 | 0 | 0.0 | 0.0 | 0.00 | 0.01 | 0.00 | 99 | 1015.0 |
| 20260906061603 | 68 | 0 | 0.0 | 0.0 | 0.00 | 0.01 | 0.00 | 99 | 1015.0 |
| 20260906060107 | 68 | 0 | 0.0 | 0.0 | 0.00 | 0.01 | 0.00 | 99 | 1015.4 |
| 20260906054604 | 68 | 0 | 0.0 | 1.0 | 0.00 | 0.01 | 0.00 | 99 | 1015.4 |
| 20260906053056 | 68 | 0 | 0.0 | 0.0 | 0.00 | 0.01 | 0.00 | 99 | 1015.6 |
| 20260906051554 | 69 | 0 | 0.0 | 0.0 | 0.00 | 0.01 | 0.00 | 99 | 1015.9 |
| 20260906050107 | 69 | 0 | 0.0 | 0.0 | 0.00 | 0.01 | 0.00 | 99 | 1015.7 |
| 20260906044601 | 69 | 0 | 0.0 | 0.0 | 0.00 | 0.01 | 0.00 | 99 | 1016.1 |
| 20260906043055 | 69 | 0 | 0.0 | 0.0 | 0.00 | 0.01 | 0.00 | 99 | 1016.0 |
| 20260906041553 | 69 | 0 | 0.0 | 0.0 | 0.00 | 0.01 | 0.00 | 99 | 1016.3 |
| 20260906040109 | 70 | 0 | 0.0 | 0.0 | 0.00 | 0.01 | 0.00 | 99 | 1016.1 |
| 20260906034557 | 70 | 0 | 0.0 | 0.0 | 0.00 | 0.01 | 0.01 | 99 | 1016.2 |
| 20260906033101 | 71 | 0 | 0.0 | 0.0 | 0.00 | 0.01 | 0.01 | 99 | 1016.1 |
| 20260906031611 | 71 | 0 | 0.0 | 0.0 | 0.00 | 0.01 | 0.01 | 99 | 1016.1 |
| 20260906030057 | 71 | 0 | 0.0 | 0.0 | 0.00 | 0.01 | 0.01 | 99 | 1016.1 |
| 20260906024605 | 71 | 0 | 0.0 | 0.0 | 0.00 | 0.01 | 0.01 | 98 | 1016.1 |
| 20260906023101 | 72 | 0 | 0.0 | 0.0 | 0.00 | 0.01 | 0.01 | 98 | 1016.1 |
| 20260906021604 | 72 | 0 | 0.0 | 0.0 | 0.00 | 0.01 | 0.01 | 98 | 1016.2 |
| 20260906020104 | 72 | 0 | 0.0 | 0.0 | 0.00 | 0.01 | 0.01 | 98 | 1016.1 |
| 20260906014600 | 72 | 0 | 0.0 | 0.0 | 0.00 | 0.01 | 0.01 | 98 | 1015.8 |
| 20260906013104 | 72 | 0 | 0.0 | 0.0 | 0.00 | 0.01 | 0.01 | 97 | 1015.7 |
| 20260906011555 | 73 | 0 | 0.0 | 0.0 | 0.00 | 0.01 | 0.01 | 97 | 1015.0 |
| 20260906010056 | 73 | 0 | 0.0 | 0.0 | 0.00 | 0.01 | 0.01 | 97 | 1014.7 |
| 20260906004607 | 73 | 0 | 0.0 | 0.0 | 0.00 | 0.01 | 0.01 | 96 | 1014.6 |
| 20260906003058 | 74 | 0 | 0.0 | 0.0 | 0.00 | 0.01 | 0.01 | 96 | 1014.6 |
| 20260906001555 | 74 | 0 | 0.0 | 0.0 | 0.00 | 0.01 | 0.01 | 96 | 1014.2 |
| 20260906000106 | 75 | 0 | 0.0 | 0.0 | 0.00 | 0.01 | 0.01 | 95 | 1014.3 |
| 20260905234607 | 76 | 0 | 0.0 | 0.0 | 0.00 | 0.01 | 0.01 | 94 | 1014.3 |
| 20260905233057 | 77 | 0 | 0.0 | 0.0 | 0.00 | 0.01 | 0.01 | 92 | 1014.3 |
| 20260905231602 | 76 | 0 | 0.0 | 0.0 | 0.00 | 0.01 | 0.01 | 90 | 1014.9 |
| 20260905230059 | 77 | 0 | 0.0 | 0.0 | 0.00 | 0.01 | 0.01 | 89 | 1014.7 |
| 20260905224555 | 77 | 0 | 0.0 | 1.0 | 0.00 | 0.01 | 0.01 | 85 | 1014.9 |
| 20260905223055 | 77 | 0 | 0.0 | 0.0 | 0.01 | 0.01 | 0.01 | 92 | 1014.5 |
| 20260905221550 | 76 | 0 | 0.0 | 0.0 | 0.01 | 0.01 | 0.01 | 93 | 1014.5 |
| 20260905220057 | 75 | 0 | 0.0 | 0.0 | 0.01 | 0.01 | 0.01 | 94 | 1014.7 |
| 20260905214554 | 75 | 0 | 0.0 | 0.0 | 0.01 | 0.01 | 0.01 | 91 | 1014.8 |
| 20260905213105 | 78 | 0 | 0.0 | 11.0 | 0.00 | 0.00 | 0.00 | 86 | 1014.9 |
| 20260905211608 | 86 | 146 | 1.0 | 14.0 | 0.00 | 0.00 | 0.00 | 70 | 1014.7 |
| 20260905204556 | 93 | 0 | 1.0 | 5.0 | 0.00 | 0.00 | 0.00 | 55 | 1014.3 |
| 20260905203113 | 94 | 0 | 0.0 | 6.0 | 0.00 | 0.00 | 0.00 | 56 | 1014.2 |
| 20260905201602 | 94 | 0 | 0.0 | 4.0 | 0.00 | 0.00 | 0.00 | 55 | 1014.3 |
| 20260905200117 | 94 | 0 | 0.0 | 3.0 | 0.00 | 0.00 | 0.00 | 52 | 1014.5 |
| 20260905194553 | 94 | 129 | 0.0 | 5.0 | 0.00 | 0.00 | 0.00 | 53 | 1014.5 |
| 20260905193101 | 94 | 0 | 0.0 | 1.0 | 0.00 | 0.00 | 0.00 | 56 | 1014.7 |
| 20260905191555 | 94 | 0 | 0.0 | 4.0 | 0.00 | 0.00 | 0.00 | 56 | 1015.1 |
| 20260905190054 | 94 | 0 | 0.0 | 0.0 | 0.00 | 0.00 | 0.00 | 58 | 1015.1 |
| 20260905184609 | 94 | 0 | 0.0 | 3.0 | 0.00 | 0.00 | 0.00 | 52 | 1015.2 |
| 20260905183058 | 94 | 178 | 1.0 | 5.0 | 0.00 | 0.00 | 0.00 | 50 | 1015.2 |
| 20260905181555 | 92 | 0 | 0.0 | 4.0 | 0.00 | 0.00 | 0.00 | 61 | 1015.6 |
| 20260905180105 | 93 | 0 | 0.0 | 3.0 | 0.00 | 0.00 | 0.00 | 63 | 1015.8 |
| 20260905174557 | 93 | 0 | 0.0 | 4.0 | 0.00 | 0.00 | 0.00 | 63 | 1016.0 |
| 20260905173102 | 92 | 0 | 0.0 | 1.0 | 0.00 | 0.00 | 0.00 | 65 | 1016.0 |
| 20260905171553 | 92 | 144 | 1.0 | 5.0 | 0.00 | 0.00 | 0.00 | 62 | 1016.3 |
| 20260905164605 | 92 | 0 | 0.0 | 2.0 | 0.00 | 0.00 | 0.00 | 67 | 1016.3 |
| 20260905163051 | 91 | 0 | 0.0 | 2.0 | 0.00 | 0.00 | 0.00 | 69 | 1016.5 |
| 20260905161557 | 91 | 0 | 0.0 | 2.0 | 0.00 | 0.00 | 0.00 | 68 | 1016.8 |
| 20260905160056 | 90 | 136 | 0.0 | 1.0 | 0.00 | 0.00 | 0.00 | 68 | 1017.0 |
| 20260905154557 | 90 | 0 | 0.0 | 4.0 | 0.00 | 0.00 | 0.00 | 72 | 1017.3 |
| 20260905153052 | 89 | 0 | 0.0 | 1.0 | 0.00 | 0.00 | 0.00 | 71 | 1017.2 |
| 20260905151612 | 88 | 0 | 0.0 | 1.0 | 0.00 | 0.00 | 0.00 | 73 | 1017.4 |
| 20260905150055 | 88 | 0 | 0.0 | 0.0 | 0.00 | 0.00 | 0.00 | 74 | 1017.4 |
| 20260905144559 | 88 | 0 | 0.0 | 0.0 | 0.00 | 0.00 | 0.00 | 73 | 1017.5 |
| 20260905143053 | 87 | 0 | 0.0 | 0.0 | 0.00 | 0.00 | 0.00 | 77 | 1017.4 |
| 20260905141554 | 85 | 0 | 0.0 | 0.0 | 0.00 | 0.00 | 0.00 | 78 | 1017.5 |
| 20260905140056 | 84 | 0 | 0.0 | 0.0 | 0.00 | 0.00 | 0.00 | 83 | 1017.6 |
| 20260905134559 | 83 | 0 | 0.0 | 0.0 | 0.00 | 0.00 | 0.00 | 85 | 1017.7 |
| 20260905133058 | 82 | 0 | 0.0 | 0.0 | 0.00 | 0.00 | 0.00 | 83 | 1017.8 |
| 20260905131554 | 81 | 0 | 0.0 | 0.0 | 0.00 | 0.00 | 0.00 | 86 | 1018.0 |
| 20260905130051 | 79 | 0 | 0.0 | 0.0 | 0.00 | 0.00 | 0.00 | 88 | 1018.0 |
| 20260905124558 | 76 | 0 | 0.0 | 0.0 | 0.00 | 0.00 | 0.00 | 93 | 1017.9 |
| 20260905123055 | 73 | 0 | 0.0 | 0.0 | 0.00 | 0.00 | 0.00 | 98 | 1017.9 |
| 20260905121553 | 71 | 0 | 0.0 | 0.0 | 0.00 | 0.00 | 0.00 | 100 | 1017.8 |
| 20260905120105 | 69 | 0 | 0.0 | 0.0 | 0.00 | 0.00 | 0.00 | 100 | 1017.6 |
| 20260905114603 | 68 | 0 | 0.0 | 0.0 | 0.00 | 0.00 | 0.00 | 100 | 1017.6 |
| 20260905113054 | 68 | 0 | 0.0 | 0.0 | 0.00 | 0.00 | 0.00 | 100 | 1017.3 |